Location: Campillo
(40.8621°N, 4.2488°W)
Time: 18:16:58
(UTC+00:00)

Cosmos 2297 - Visible Passes

Search period start: 24 September 2021 00:00
Search period end: 04 October 2021 00:00
Orbit: 835 x 859 km, 71.0° (Epoch: 23 September)

Date Brightness Start Highest point End Pass type
(mag) Time Alt. Az. Time Alt. Az. Time Alt. Az.
24 Sep 6.0 03:16:40 10° N 03:21:04 22° NE 03:25:25 10° ESE visible
24 Sep 3.7 05:00:01 10° NNW 05:05:40 61° WSW 05:11:17 10° S visible
24 Sep 5.7 19:52:47 10° WSW 19:57:42 30° NW 20:02:42 10° N visible
25 Sep 6.0 03:03:18 10° N 03:07:39 22° NE 03:11:58 10° E visible
25 Sep 3.7 04:46:36 10° NNW 04:52:16 62° WSW 04:57:53 10° S visible
25 Sep 5.6 19:39:19 10° WSW 19:44:17 30° WNW 19:49:19 10° N visible
26 Sep 6.0 02:49:55 10° N 02:54:13 21° NE 02:58:30 10° E visible
26 Sep 3.7 04:33:12 10° NNW 04:38:53 63° WSW 04:44:30 10° S visible
26 Sep 5.6 19:25:53 10° WSW 19:30:53 31° WNW 19:35:56 10° N visible
27 Sep 6.0 02:36:33 10° N 02:40:48 21° NE 02:45:02 10° E visible
27 Sep 3.6 04:19:47 10° NNW 04:25:29 65° WSW 04:31:08 10° S visible
27 Sep 5.6 19:12:26 10° WSW 19:17:28 32° WNW 19:22:33 10° N visible
28 Sep 6.0 02:23:11 10° N 02:27:24 20° NE 02:31:34 10° E visible
28 Sep 3.6 04:06:22 10° NNW 04:12:05 66° WSW 04:17:44 10° S visible
28 Sep 5.6 18:58:59 10° WSW 19:04:03 32° WNW 19:09:10 10° N visible
29 Sep 6.0 02:09:49 10° N 02:13:58 20° NE 02:18:06 10° E visible
29 Sep 3.7 03:52:57 10° NNW 03:59:30 60° SSW 04:04:21 10° SSE visible
29 Sep 5.6 18:45:33 10° WSW 18:50:38 33° WNW 18:55:47 10° N visible
30 Sep 6.5 01:56:27 10° N 01:56:58 12° N 01:56:58 12° N visible
30 Sep6.203:51:29SSE03:51:29SSE03:38:44NNWvisible
30 Sep 5.6 18:32:06 10° WSW 18:37:13 33° WNW 18:42:24 10° N visible
01 Oct 5.5 18:18:40 10° WSW 18:23:49 34° WNW 18:29:01 10° N visible
